View from above orbital plane
|
View from above satellite
|
Ground track
|
The orbit data is extracted from the following two-line orbital elements,
1 28738U 05024B 21104.53013696 .00000579 00000-0 36986-4 0 9997
2 28738 97.3653 122.8171 0010749 216.2978 143.7525 15.12344804866909
Epoch (UTC): | 14 April 2021 12:43:23 |
Eccentricity: | 0.0010749 |
inclination: | 97.3653° |
perigee height: | 521 km |
apogee height: | 536 km |
right ascension of ascending node: | 122.8171° |
argument of perigee: | 216.2978° |
revolutions per day: | 15.12344804 |
mean anomaly at epoch: | 143.7525° |
orbit number at epoch: | 86690 |
The dashed part of the orbit path shows where the satellite is in the earth's shadow,
|
|